Hourly Data Report for March 31, 2018

MIRAMICHI RCS
NEW BRUNSWICK

47°00'34.000" N
65°27'54.000" W
33.00 m
8100989
71744
ACQ

Download Data

Hourly Data (March 2018)
Hourly Data Report for March 31, 2018
TIME
LST
Temp Definition
°C
Dew Point Definition
°C
Rel Hum Definition
%
Precip. Amount Definition
mm

Wind Dir Definition
10's deg

Wind Spd Definition
km/h
Visibility Definition
km
Stn Press Definition
kPa
Hmdx Definition


Wind Chill Definition


Weather Definition


00:00 2.7 1.0 88 0.0 29 9   100.13     LegendNANA
01:00 2.1 0.3 88 0.0 27 9   100.18     LegendNANA
02:00 1.5 0.3 91 0.0 29 4   100.13     LegendNANA
03:00 1.1 0.2 93 0.0 23 6   100.18     LegendNANA
04:00 1.3 0.4 93 0.0 28 5   100.19     LegendNANA
05:00 2.0 -0.5 84 0.0 29 11   100.29     LegendNANA
06:00 1.6 -1.1 82 0.0 30 12   100.36     LegendNANA
07:00 0.6 -3.5 74 0.0 30 18   100.48     LegendNANA
08:00 0.0 -6.4 62 0.0 32 17   100.59   -5 LegendNANA
09:00 -0.2 -8.9 52 0.0 29 26   100.70   -6 LegendNANA
10:00 0.5 -12.1 38 0.0 29 25   100.80     LegendNANA
11:00 1.5 -13.1 33 0.0 29 29   100.83     LegendNANA
12:00 2.2 -13.9 29 0.0 30 27   100.85     LegendNANA
13:00 3.0 -12.9 30 0.0 28 30   100.86     LegendNANA
14:00 4.0 -12.1 30 0.0 30 20   100.86     LegendNANA
15:00 4.5 -11.7 30 0.0 29 21   100.85     LegendNANA
16:00 3.9 -12.4 29 0.0 28 31   100.94     LegendNANA
17:00 4.1 -11.4 31 0.0 28 31   101.04     LegendNANA
18:00 4.2 -11.2 32 0.0 27 20   101.04     LegendNANA
19:00 3.2 -10.7 35 0.0 26 12   101.06     LegendNANA
20:00 -0.7 -9.1 53 0.0 22 8   101.11   -4 LegendNANA
21:00 -1.3 -7.6 62 0.0 24 5   101.17   -3 LegendNANA
22:00 -3.4 -7.8 72 0.0 24 4   101.16   -5 LegendNANA
23:00 -3.1 -7.7 70 0.0 25 3   101.19   -4 LegendNANA

Notes on Data Quality.

Legend

  • E = Estimated
  • M = Missing
  • NA = Not Available*
  • [empty] = Indicates an unobserved value
Date modified: